sat.trackr.live / text

‹ back to catalog

STARLINK-6294

NORAD 57225 · 2023-094H

PAYLOAD ACTIVE UNKNOWN

§ Identity

Operator
Country
US
Launch date
2023-07-07
Launch site
AFWTR
Launch vehicle
Mass (kg)
RCS (m²)

Purposes: comms

External: N2YO · Heavens-Above · Gunter

§ Orbital elements

Epoch: 2026-09-20T18:08:51.792000Z

Period
94.27 min
Inclination
43.0050°
Eccentricity
0.0001545
Mean motion
15.27572823 rev/d
Perigee alt
482.0 km
Apogee alt
484.1 km
Semi-major
6,861.2 km
B*
-8.4640e-6
RAAN
9.4897°
Arg perigee
268.9970°
Mean anomaly
91.0705°
Rev number
17,694

§ Raw data

STARLINK-62941 57225U 23094H   26263.75615500 -.00000495  00000+0 -84640-5 0  99932 57225  43.0050   9.4897 0001545 268.9970  91.0705 15.27572823176949

JSON: /api/v1/satellites/57225 · /tle

For live sub-satellite position, see the globe view (requires WebGL).

§ Visibility from observer

Set your observer location to see the next 7 days of passes ≥ 10°. The values pass through the URL so the page stays shareable.

No JS? Fill the form by hand. The geolocation button needs JavaScript.